timestamp,surface_pressure_avg,surface_temp_avg,battery_voltage,lat,long
2021-03-05 00:09:01+00:00,253.7581,0.88,12.33,47.84626,-54.09684
2021-03-05 00:19:01+00:00,261.7031,0.89,12.33,47.84626,-54.09684
2021-03-05 00:29:01+00:00,266.5414,0.9,12.33,47.84626,-54.09684
2021-03-05 00:39:01+00:00,268.2181,0.9,12.33,47.84626,-54.09684
2021-03-05 00:49:01+00:00,272.0314,0.9,12.33,47.84626,-54.09684
2021-03-05 00:59:01+00:00,279.1647,0.89,12.33,47.84626,-54.09684
2021-03-05 01:09:01+00:00,283.048,0.89,12.33,47.84626,-54.09684
2021-03-05 01:19:01+00:00,288.5347,0.89,12.33,47.84626,-54.09684
2021-03-05 01:29:01+00:00,297.393,0.89,12.33,47.84626,-54.09684
2021-03-05 01:39:01+00:00,308.3846,0.88,12.33,47.84626,-54.09684
2021-03-05 01:49:01+00:00,316.593,0.87,12.33,47.84626,-54.09684
2021-03-05 01:59:01+00:00,323.3663,0.87,12.33,47.84626,-54.09684
2021-03-05 02:09:01+00:00,329.6546,0.83,12.33,47.84626,-54.09684
2021-03-05 02:19:01+00:00,338.3747,0.8,12.33,47.84626,-54.09684
2021-03-05 02:29:01+00:00,347.1096,0.8,12.33,47.84626,-54.09684
2021-03-05 02:39:01+00:00,350.3011,0.8,12.33,47.84626,-54.09684
2021-03-05 02:49:01+00:00,351.773,0.8,12.33,47.84626,-54.09684
2021-03-05 02:59:01+00:00,354.1364,0.8,12.33,47.84626,-54.09684
2021-03-05 03:09:01+00:00,357.1229,0.8,12.33,47.84626,-54.09684
2021-03-05 03:19:01+00:00,360.1263,0.79,12.33,47.84626,-54.09684
2021-03-05 03:29:01+00:00,361.2479,0.79,12.33,47.84626,-54.09684
2021-03-05 03:39:01+00:00,365.8879,0.8,12.33,47.84626,-54.09684
2021-03-05 03:49:01+00:00,366.4363,0.79,12.33,47.84626,-54.09684
2021-03-05 03:59:01+00:00,365.5212,0.77,12.33,47.84626,-54.09684
2021-03-05 04:09:01+00:00,366.3362,0.78,12.33,47.84626,-54.09684
2021-03-05 04:19:01+00:00,367.1296,0.77,12.33,47.84626,-54.09684
2021-03-05 04:29:01+00:00,362.778,0.74,12.33,47.84626,-54.09684
2021-03-05 04:39:01+00:00,360.4695,0.73,12.33,47.84626,-54.09684
2021-03-05 04:49:01+00:00,365.8863,0.74,12.33,47.84626,-54.09684
2021-03-05 04:59:01+00:00,367.4045,0.75,12.33,47.84626,-54.09684
2021-03-05 05:09:01+00:00,361.8446,0.72,12.33,47.84626,-54.09684
2021-03-05 05:19:01+00:00,362.6479,0.7,12.33,47.84626,-54.09684
2021-03-05 05:29:01+00:00,366.9747,0.7,12.33,47.84626,-54.09684
2021-03-05 05:39:01+00:00,365.2263,0.7,12.33,47.84626,-54.09684
2021-03-05 05:49:01+00:00,359.2913,0.7,12.33,47.84626,-54.09684
2021-03-05 05:59:01+00:00,354.7046,0.7,12.33,47.84626,-54.09684
2021-03-05 06:09:01+00:00,351.2513,0.72,12.33,47.84626,-54.09684
2021-03-05 06:19:01+00:00,343.6329,0.76,12.33,47.84626,-54.09684
2021-03-05 06:29:01+00:00,332.2813,0.76,12.33,47.84626,-54.09684
2021-03-05 06:39:01+00:00,328.158,0.77,12.33,47.84626,-54.09684
2021-03-05 06:49:01+00:00,322.4696,0.77,12.33,47.84626,-54.09684
2021-03-05 06:59:01+00:00,308.9047,0.75,12.33,47.84626,-54.09684
2021-03-05 07:09:01+00:00,298.553,0.72,12.33,47.84626,-54.09684
2021-03-05 07:19:01+00:00,295.583,0.73,12.33,47.84626,-54.09684
2021-03-05 07:29:01+00:00,288.3664,0.72,12.33,47.84626,-54.09684
2021-03-05 07:39:01+00:00,276.1347,0.71,12.33,47.84626,-54.09684
2021-03-05 07:49:01+00:00,267.3698,0.7,12.33,47.84626,-54.09684
2021-03-05 07:59:01+00:00,260.1281,0.71,12.33,47.84626,-54.09684
2021-03-05 08:09:01+00:00,248.9114,0.72,12.33,47.84626,-54.09684
2021-03-05 08:19:01+00:00,239.8581,0.72,12.33,47.84626,-54.09684
2021-03-05 08:29:01+00:00,236.9647,0.73,12.33,47.84626,-54.09684
2021-03-05 08:39:01+00:00,232.5631,0.74,12.33,47.84626,-54.09684
2021-03-05 08:49:01+00:00,224.6181,0.74,12.33,47.84626,-54.09684
2021-03-05 08:59:01+00:00,220.4164,0.73,12.33,47.84626,-54.09684
2021-03-05 09:09:01+00:00,218.0614,0.71,12.33,47.84626,-54.09684
2021-03-05 09:19:01+00:00,213.9081,0.7,12.33,47.84626,-54.09684
2021-03-05 09:29:01+00:00,207.1865,0.7,12.33,47.84626,-54.09684
2021-03-05 09:39:01+00:00,206.9681,0.7,12.33,47.84626,-54.09684
2021-03-05 09:49:01+00:00,212.6348,0.7,12.33,47.84626,-54.09684
2021-03-05 09:59:01+00:00,216.5832,0.7,12.33,47.84626,-54.09684
2021-03-05 10:09:01+00:00,215.3248,0.7,12.33,47.84626,-54.09684
2021-03-05 10:19:01+00:00,216.1447,0.7,12.33,47.84626,-54.09684
2021-03-05 10:29:01+00:00,218.5447,0.7,12.33,47.84626,-54.09684
2021-03-05 10:39:01+00:00,218.7415,0.7,12.33,47.84626,-54.09684
2021-03-05 10:49:01+00:00,217.8148,0.7,12.33,47.84626,-54.09684
2021-03-05 10:59:01+00:00,220.2097,0.69,12.33,47.84626,-54.09684
2021-03-05 11:09:01+00:00,227.4764,0.69,12.33,47.84626,-54.09684
2021-03-05 11:19:01+00:00,227.8431,0.68,12.33,47.84626,-54.09684
2021-03-05 11:29:01+00:00,223.6315,0.65,12.33,47.84626,-54.09684
2021-03-05 11:39:01+00:00,226.2082,0.6,12.33,47.84626,-54.09684
2021-03-05 11:49:01+00:00,236.0464,0.6,12.33,47.84626,-54.09684
2021-03-05 11:59:01+00:00,238.8215,0.6,12.33,47.84626,-54.09684
2021-03-05 12:09:01+00:00,237.8231,0.6,12.33,47.84626,-54.09684
2021-03-05 12:19:01+00:00,240.2281,0.6,12.33,47.84626,-54.09684
2021-03-05 12:29:01+00:00,243.3365,0.6,12.33,47.84626,-54.09684
2021-03-05 12:39:01+00:00,242.8864,0.6,12.33,47.84626,-54.09684
2021-03-05 12:49:01+00:00,243.2247,0.6,12.33,47.84626,-54.09684
2021-03-05 12:59:01+00:00,247.0864,0.6,12.33,47.84626,-54.09684
2021-03-05 13:09:01+00:00,250.9948,0.6,12.33,47.84626,-54.09684
2021-03-05 13:19:01+00:00,256.7631,0.6,12.41,47.84626,-54.09684
2021-03-05 13:29:01+00:00,260.7847,0.6,12.41,47.84626,-54.09684
2021-03-05 13:39:01+00:00,266.6414,0.6,12.41,47.84626,-54.09684
2021-03-05 13:49:01+00:00,271.5331,0.62,12.41,47.84626,-54.09684
2021-03-05 13:59:01+00:00,277.9481,0.62,12.41,47.84626,-54.09684
2021-03-05 14:09:01+00:00,285.4064,0.63,12.41,47.84626,-54.09684
2021-03-05 14:19:01+00:00,293.6797,0.64,12.57,47.84626,-54.09684
2021-03-05 14:29:01+00:00,299.688,0.63,12.57,47.84626,-54.09684
2021-03-05 14:39:01+00:00,306.243,0.63,12.57,47.84626,-54.09684
2021-03-05 14:49:01+00:00,312.2746,0.63,12.57,47.84626,-54.09684
2021-03-05 14:59:01+00:00,320.2697,0.63,12.57,47.84626,-54.09684
2021-03-05 15:09:01+00:00,323.9696,0.65,12.57,47.84626,-54.09684
2021-03-05 15:19:01+00:00,323.9897,0.66,12.65,47.84626,-54.09684
2021-03-05 15:29:01+00:00,327.468,0.68,12.65,47.84626,-54.09684
2021-03-05 15:39:01+00:00,332.0013,0.68,12.65,47.84626,-54.09684
2021-03-05 15:49:01+00:00,334.233,0.69,12.65,47.84626,-54.09684
2021-03-05 15:59:01+00:00,333.4297,0.69,12.65,47.84626,-54.09684
2021-03-05 16:09:01+00:00,339.5511,0.7,12.65,47.84626,-54.09684
2021-03-05 16:19:01+00:00,344.3997,0.7,12.81,47.84626,-54.09684
2021-03-05 16:29:01+00:00,342.9529,0.7,12.81,47.84626,-54.09684
2021-03-05 16:39:01+00:00,343.1397,0.7,12.81,47.84626,-54.09684
2021-03-05 16:49:01+00:00,341.8079,0.7,12.81,47.84626,-54.09684
2021-03-05 16:59:01+00:00,340.0113,0.7,12.81,47.84626,-54.09684
2021-03-05 17:09:01+00:00,337.8647,0.7,12.81,47.84626,-54.09684
2021-03-05 17:19:01+00:00,340.8414,0.7,12.89,47.84626,-54.09684
2021-03-05 17:29:01+00:00,341.1113,0.7,12.89,47.84626,-54.09684
2021-03-05 17:39:01+00:00,338.0313,0.7,12.89,47.84626,-54.09684
2021-03-05 17:49:01+00:00,333.588,0.7,12.89,47.84626,-54.09684
2021-03-05 17:59:01+00:00,334.1063,0.7,12.89,47.84626,-54.09684
2021-03-05 18:09:01+00:00,335.48800000000006,0.7,12.89,47.84626,-54.09684
2021-03-05 18:19:01+00:00,331.838,0.7,12.89,47.84626,-54.09684
2021-03-05 18:29:01+00:00,321.988,0.71,12.89,47.84626,-54.09684
2021-03-05 18:39:01+00:00,315.2597,0.75,12.89,47.84626,-54.09684
2021-03-05 18:49:01+00:00,313.2864,0.76,12.89,47.84626,-54.09684
2021-03-05 18:59:01+00:00,304.6913,0.78,12.89,47.84626,-54.09684
2021-03-05 19:09:01+00:00,292.2964,0.77,12.89,47.84626,-54.09684
2021-03-05 19:19:01+00:00,288.7147,0.77,12.89,47.84626,-54.09684
2021-03-05 19:29:01+00:00,285.2864,0.78,12.89,47.84626,-54.09684
2021-03-05 19:39:01+00:00,269.6665,0.79,12.89,47.84626,-54.09684
2021-03-05 19:49:01+00:00,260.5781,0.8,12.89,47.84626,-54.09684
2021-03-05 19:59:01+00:00,262.6964,0.8,12.89,47.84626,-54.09684
2021-03-05 20:09:01+00:00,254.8714,0.8,12.89,47.84626,-54.09684
2021-03-05 20:19:01+00:00,233.9147,0.8,12.81,47.84626,-54.09684
2021-03-05 20:29:01+00:00,228.1447,0.8,12.81,47.84626,-54.09684
2021-03-05 20:39:01+00:00,235.7981,0.88,12.81,47.84626,-54.09684
2021-03-05 20:49:01+00:00,230.7398,0.89,12.81,47.84626,-54.09684
2021-03-05 20:59:01+00:00,214.3914,0.84,12.81,47.84626,-54.09684
2021-03-05 21:09:01+00:00,213.9264,0.84,12.81,47.84626,-54.09684
2021-03-05 21:19:01+00:00,221.9164,0.88,12.65,47.84626,-54.09684
2021-03-05 21:29:01+00:00,215.4497,0.87,12.65,47.84626,-54.09684
2021-03-05 21:39:01+00:00,210.4348,0.8,12.65,47.84626,-54.09684
2021-03-05 21:49:01+00:00,215.2864,0.83,12.65,47.84626,-54.09684
2021-03-05 21:59:01+00:00,215.4964,0.81,12.65,47.84626,-54.09684
2021-03-05 22:09:01+00:00,213.1564,0.8,12.65,47.84626,-54.09684
2021-03-05 22:19:01+00:00,220.3564,0.8,12.57,47.84626,-54.09684
2021-03-05 22:29:01+00:00,229.0497,0.8,12.57,47.84626,-54.09684
2021-03-05 22:39:01+00:00,229.5548,0.8,12.57,47.84626,-54.09684
2021-03-05 22:49:01+00:00,228.7698,0.74,12.57,47.84626,-54.09684
2021-03-05 22:59:01+00:00,232.6281,0.7,12.57,47.84626,-54.09684
2021-03-05 23:09:01+00:00,237.5148,0.7,12.57,47.84626,-54.09684
2021-03-05 23:19:01+00:00,239.2547,0.7,12.49,47.84626,-54.09684
2021-03-05 23:29:01+00:00,237.9931,0.7,12.49,47.84626,-54.09684
2021-03-05 23:39:01+00:00,237.4098,0.7,12.49,47.84626,-54.09684
2021-03-05 23:49:01+00:00,241.0781,0.7,12.49,47.84626,-54.09684
2021-03-05 23:59:01+00:00,244.7464,0.7,12.49,47.84626,-54.09684
